Preview of NWS' New Version of Forecast
This preview is not operational and should not be used for support decisions.

Regional Weather Roundup (RWR)

Issued by National Weather Service (NWS)

                            
000
ASUS43 KTOP 210659
RWRKS 

WEATHER ROUNDUP FOR KANSAS
NATIONAL WEATHER SERVICE GOODLAND KS
200 AM CDT SUN APR 21 2019

NOTE:  "FAIR" INDICATES FEW OR NO CLOUDS BELOW 12,000 FEET WITH NO
SIGNIFICANT WEATHER AND/OR OBSTRUCTIONS TO VISIBILITY.

KSZ001>006-013>018-027>032-041>047-210800-
NORTHWEST KANSAS
  
CITY           SKY/WX    TMP DP  RH WIND       PRES   REMARKS
GOODLAND       CLOUDY    65  39  38 S14G22    29.66S                  
HAYS           CLOUDY    63  49  60 S16       29.67F                  
HILL CITY      CLOUDY    65  48  54 SE7       29.67S                  
RUSSELL        PTCLDY    64  48  56 S23G33    29.68F                  
$$

KSZ061>065-074>080-084>089-210800-
SOUTHWEST KANSAS
  
CITY           SKY/WX    TMP DP  RH WIND       PRES   REMARKS
DODGE CITY     PTCLDY    63  45  51 S17       29.69F                  
ELKHART        CLEAR     64  42  45 S15       29.74S                  
GARDEN CITY    MOCLDY    69  40  34 S20G31    29.68F                  
GREAT BEND     PTCLDY    64  49  57 S17G25    29.72R                  
LIBERAL        MOCLDY    66  44  45 S15       29.72R                  
$$

KSZ066>073-081>083-090>101-210800-
SOUTHEAST KANSAS
  
CITY           SKY/WX    TMP DP  RH WIND       PRES   REMARKS
CHANUTE        CLEAR     60  46  59 S10       29.86F                  
COFFEYVILLE    CLEAR     55  46  71 S6        29.86F                  
HUTCHINSON     CLEAR     64  48  56 SE18      29.75F                  
MEDICINE LODGE   N/A     61  50  67 SE12G20   29.74F                  
NEWTON         CLEAR     60  48  64 S13       29.80F                  
PARSONS        CLEAR     59  45  59 S6        29.88S                  
WICHITA INTL   PTCLDY    62  48  60 S16       29.79F                  
WICHITA JABRA  PTCLDY    62  48  60 S15       29.80F                  
WICHITA MCCONL CLOUDY    65  47  53 SE16      29.79F                  
WINFIELD       CLEAR     62  48  60 S13G22    29.82F                  
$$

KSZ007>012-019>026-033>040-048>060-102>105-210800-
NORTHEAST KANSAS
  
CITY           SKY/WX    TMP DP  RH WIND       PRES   REMARKS
CONCORDIA      PTCLDY    66  48  52 S17G28    29.73F                  
EMPORIA        CLEAR     59  48  67 S15       29.81F                  
LAWRENCE       CLEAR     61  45  55 VRB5      29.82F                  
MANHATTAN      PTCLDY    63  46  54 SW9       29.78S                  
OLATHE IND     CLEAR     58  46  64 S10       29.85S                  
OLATHE EXE     CLEAR     60  44  55 S12       29.84F                  
SALINA         CLEAR     65  47  52 S17G25    29.74F                  
TOPEKA BILLARD CLEAR     63  45  51 S12G18    29.80F                  
TOPEKA FORBES  CLEAR     63  45  51 S14       29.81F                  
$$